Flag for Canada Weather past 2 weeks in Qikiqtarjuaq, Nunavut Territory, Canada

Now
23 °F

Overcast.


Feels Like: 18 °F
Forecast: 24 / 28 °F
Wind: 3 mph from South

Location: Broughton Island Airport

Current Time: Oct 20, 2014 at 8:43:46 PM

Latest Report: Oct 20, 2014 at 8:00 PM


Visibility: 9 mi

Pressure: 29.87 "Hg

Humidity: 80%

Dew point: 18 °F

Location of QikiqtarjuaqLocation

Historic Weather in Qikiqtarjuaq — Graph

°F

Qikiqtarjuaq temperature yesterday

Maximum temperature yesterday: 23 °F (at 12:00 AM)
Minimum temperature yesterday: 19 °F (at 6:00 AM)
Average temperature yesterday: 22 °F

Past Weeks' High & Low Weather Summary

 TemperatureHumidityPressure
High36 °F (Oct 11, 1:00 PM)100% (Oct 7, 6:00 PM)30.39 "Hg (Oct 7, 6:00 PM)
Low19 °F (Oct 19, 6:00 AM)59% (Oct 12, 8:00 AM)29.36 "Hg (Oct 12, 2:59 AM)
Average29 °F83%29.90 "Hg
* Reported Oct 5 7:00 PM — Oct 20 7:00 PM, Qikiqtarjuaq, Weather by CustomWeather, © 2014

Note: Actual official high and low records may vary slightly from our data, if they occured in-between our weather recording intervals... More about our weather records

Advertising

Qikiqtarjuaq weather history for previous 24 hours

 ConditionsComfort  
Time TempWeatherWind HumidityBarometerVisibility
7:00 PM
Oct 20
23 °FOvercast.6 mph80%29.89 "Hg9 mi
6:00 PM23 °FMostly cloudy.7 mph74%29.91 "Hg9 mi
5:00 PM21 °FPartly sunny.6 mph80%29.93 "Hg9 mi
4:00 PM23 °FMostly cloudy.7 mph74%29.94 "Hg15 mi
3:00 PM21 °FMore clouds than sun.7 mph80%29.95 "Hg15 mi
2:00 PM23 °FMore clouds than sun.6 mph80%29.96 "Hg15 mi
1:00 PM25 °FMore clouds than sun.6 mph74%29.98 "Hg15 mi
12:00 PM23 °FMore clouds than sun.7 mph74%29.98 "Hg15 mi
11:00 AM25 °FMore clouds than sun.5 mph74%29.99 "Hg15 mi
10:00 AM25 °FMore clouds than sun.6 mph74%30.01 "Hg15 mi
9:00 AM27 °FOvercast.10 mph74%30.02 "Hg15 mi
8:00 AM27 °FOvercast.9 mph74%30.02 "Hg15 mi
7:00 AM27 °FOvercast.8 mph74%30.03 "Hg15 mi
6:00 AM27 °FOvercast.12 mph74%30.02 "Hg12 mi
5:03 AM27 °FOvercast.7 mph74%30.03 "Hg9 mi
5:00 AM27 °FOvercast.7 mph74%30.03 "Hg9 mi
4:00 AM25 °FOvercast.3 mph86%30.02 "Hg9 mi
3:00 AM25 °FOvercast.5 mph80%30.02 "Hg9 mi
2:00 AM25 °FOvercast.2 mph80%30.01 "Hg9 mi
1:00 AM25 °FOvercast.3 mph80%30.00 "Hg9 mi
11:00 PM
Oct 19
19 °FPassing clouds.6 mph79%30.00 "Hg9 mi
10:00 PM21 °FPassing clouds.5 mph74%30.01 "Hg9 mi
9:00 PM21 °FPassing clouds.3 mph68%30.00 "Hg9 mi
8:00 PM21 °FPartly cloudy.No wind68%30.00 "Hg9 mi
Weather by CustomWeather, © 2014

See weather overviewHow to use our weather pages